Weather History for Crestview, FL

Change the Weather History Date:

Friday, November 2, 2012

  Actual Average Record
Temperature  
Mean Temperature 62 °F -  
Max Temperature 82 °F 74 °F 84 °F (2000)
Min Temperature 41 °F 50 °F 27 °F (1993)
Degree Days  
Heating Degree Days 4    
Growing Degree Days 12 (Base 50)    
Moisture  
Dew Point 53 °F    
Average Humidity 75    
Maximum Humidity 93    
Minimum Humidity 46    
Precipitation  
Precipitation 0.00 in - - ()
Sea Level Pressure  
Sea Level Pressure 30.05 in    
Wind  
Wind Speed 3 mph (WSW)    
Max Wind Speed 10 mph    
Max Gust Speed 17 mph    
Visibility 9 miles    
Events      
Averages and records for this station are not official NWS values.
T = Trace of Precipitation, MM = Missing Value Source: NWS Daily Summary

Daily Weather History Graph

Daily Weather History Graph

Search for Another Location

Airport:

Trip Planner

Search our weather history database for the weather conditions in past years. The results will help you decide how hot, cold, wet, or windy it might be!

Date:

Astronomy

Nov. 02, 2012 Rise Set
Actual Time 7:02 AM CDT 5:56 PM CDT
Civil Twilight 6:37 AM CDT 6:21 PM CDT
Nautical Twilight 6:08 AM CDT 6:50 PM CDT
Astronomical Twilight 5:40 AM CDT 7:18 PM CDT
Moon 8:51 PM CDT (11/2) 10:14 AM CDT (11/2)
Length of Visible Light 11h 44m
Length of Day
10h 54m
Waning Gibbous, 87% of the Moon is Illuminated
Nov 2
Waning Gibbous
Nov 6
Last Quarter
Nov 13
New
Nov 20
First Quarter
Nov 28
Full

Hourly Weather History & Observations

Time (CDT) Temp. Windchill Dew Point Humidity Pressure Visibility Wind Dir Wind Speed Gust Speed Precip Events Conditions
12:53 AM 44.1 °F - 42.1 °F 93% 30.05 in 10.0 mi Calm Calm - N/A   Clear
1:53 AM 44.1 °F 42.5 °F 41.0 °F 89% 30.05 in 10.0 mi SSW 3.5 mph - N/A   Clear
2:53 AM 43.0 °F - 39.9 °F 89% 30.04 in 10.0 mi Calm Calm - N/A   Clear
3:53 AM 42.1 °F - 39.0 °F 89% 30.05 in 10.0 mi Calm Calm - N/A   Clear
4:53 AM 41.0 °F - 39.0 °F 93% 30.06 in 10.0 mi Calm Calm - N/A   Clear
5:53 AM 41.0 °F - 37.9 °F 89% 30.06 in 10.0 mi Calm Calm - N/A   Clear
6:53 AM 41.0 °F - 37.9 °F 89% 30.07 in 10.0 mi Calm Calm - N/A   Clear
7:53 AM 45.0 °F - 42.1 °F 90% 30.08 in 10.0 mi Calm Calm - N/A   Clear
8:53 AM 55.9 °F - 48.9 °F 77% 30.09 in 10.0 mi Calm Calm - N/A   Clear
9:06 AM 59.0 °F - 50.0 °F 72% 30.10 in 10.0 mi Calm Calm - N/A   Partly Cloudy
9:53 AM 68.0 °F - 55.0 °F 63% 30.10 in 10.0 mi Calm Calm - N/A   Clear
10:53 AM 75.0 °F - 57.9 °F 55% 30.09 in 10.0 mi WSW 9.2 mph 17.3 mph N/A   Clear
11:53 AM 78.1 °F - 55.9 °F 46% 30.08 in 10.0 mi WSW 9.2 mph - N/A   Clear
12:53 PM 80.1 °F - 59.0 °F 48% 30.05 in 10.0 mi West 9.2 mph - N/A   Clear
1:53 PM 80.1 °F - 60.1 °F 50% 30.02 in 10.0 mi West 8.1 mph - N/A   Mostly Cloudy
2:53 PM 82.0 °F - 60.1 °F 47% 30.01 in 10.0 mi West 10.4 mph 16.1 mph N/A   Partly Cloudy
3:53 PM 81.0 °F - 62.1 °F 52% 30.00 in 10.0 mi SW 9.2 mph - N/A   Scattered Clouds
4:53 PM 80.1 °F - 63.0 °F 56% 30.00 in 10.0 mi WSW 8.1 mph - N/A   Scattered Clouds
5:53 PM 75.0 °F - 64.0 °F 69% 30.00 in 10.0 mi WSW 5.8 mph - N/A   Clear
6:53 PM 70.0 °F - 63.0 °F 78% 30.01 in 10.0 mi SW 4.6 mph - N/A   Clear
7:53 PM 69.1 °F - 63.0 °F 81% 30.03 in 10.0 mi SW 4.6 mph - N/A   Clear
8:53 PM 66.0 °F - 62.1 °F 87% 30.05 in 7.0 mi SW 3.5 mph - N/A   Clear
9:53 PM 62.1 °F - 60.1 °F 93% 30.05 in 5.0 mi Calm Calm - N/A   Clear
10:53 PM 60.1 °F - 57.9 °F 93% 30.06 in 4.0 mi Calm Calm - N/A   Clear
11:53 PM 64.0 °F - 62.1 °F 93% 30.07 in 5.0 mi SW 4.6 mph - N/A   Clear